Location: Shenandoah County Park
(38.9356°N, 78.4524°W)
Time: 13:57:01
(UTC-05:00)

Transit 2A - Pass Details

Date: 17 October 2025
Orbit: 591 x 954 km, 66.7° (Epoch: 07 November)

Event Time Altitude Azimuth Distance (km) Brightness Sun altitude
Exits shadow 04:53:00 83° 93° (E) 956 6.4 -30.3°
Drops below altitude 10° 04:59:11 10° 150° (SSE) 2,672 9.0 -29.1°
Sets 05:01:44 0° 151° (SSE) 3,606 9.7 -28.6°
